Home   Weather   Saint Thomas   Past weeks
Flag for US Virgin Islands

Past Weather in Saint Thomas, US Virgin Islands — Yesterday and Last 2 Weeks

Now
83 °F

Clear.


Feels Like: 90 °F
Forecast: 88 / 82 °F
Wind: 10 mph from East

Location: Cyril E. King International Airport

Current Time: Jul 22, 2019 at 11:45:01 pm

Latest Report: Jul 22, 2019 at 10:53 pm


Visibility: 10 mi

Pressure: 30.06 "Hg (27.58 "Hg at 760m altitude)

Humidity: 77%

Dew Point: 75 °F

Location of Saint ThomasLocation

Past Weather in Saint Thomas — Graph

°F

Saint Thomas Temperature Yesterday

Maximum temperature yesterday: 87 °F (at 9:53 am)
Minimum temperature yesterday: 79 °F (at 9:53 pm)
Average temperature yesterday: 82 °F

High & Low Weather Summary for the Past Weeks

 TemperatureHumidityPressure
High92 °F (Jul 15, 2:53 pm)90% (Jul 19, 1:31 pm)30.13 "Hg (Jul 19, 1:31 pm)
Low77 °F (Jul 16, 11:53 pm)52% (Jul 12, 2:53 pm)29.95 "Hg (Jul 12, 4:53 am)
Average84 °F72%30.03 "Hg
* Reported Jul 7 9:53 pm — Jul 22 9:53 pm, Saint Thomas. Weather by CustomWeather, © 2019

Note: Actual official high and low records may vary slightly from our data, if they occured in-between our weather recording intervals... More about our weather records

Advertising

Saint Thomas Weather History for the Previous 24 Hours

Scroll right to see more
 ConditionsComfort  
Time TempWeatherWind HumidityBarometerVisibility
9:53 pm
Mon, Jul 22
83 °FClear.13 mph77%30.06 "Hg10 mi
8:53 pm83 °FClear.10 mph77%30.04 "Hg10 mi
7:53 pm84 °FClear.9 mph74%30.03 "Hg10 mi
6:53 pm85 °FPassing clouds.12 mph70%30.00 "Hg10 mi
5:53 pm86 °FPassing clouds.12 mph65%30.00 "Hg10 mi
4:53 pm87 °FSunny.12 mph65%29.99 "Hg10 mi
3:53 pm87 °FSunny.15 mph65%29.99 "Hg10 mi
2:53 pm87 °FPassing clouds.13 mph65%30.00 "Hg10 mi
1:53 pm87 °FPassing clouds.15 mph65%30.01 "Hg10 mi
12:53 pm87 °FScattered clouds.16 mph65%30.03 "Hg10 mi
11:53 am87 °FScattered clouds.15 mph65%30.03 "Hg10 mi
10:53 am86 °FPassing clouds.15 mph67%30.03 "Hg10 mi
9:53 am86 °FPassing clouds.13 mph65%30.03 "Hg10 mi
8:53 am84 °FSunny.12 mph70%30.02 "Hg10 mi
7:53 am83 °FScattered clouds.9 mph72%30.02 "Hg10 mi
6:53 am81 °FSunny.7 mph77%30.02 "Hg10 mi
5:53 am79 °FClear.7 mph79%30.00 "Hg10 mi
4:53 am79 °FClear.6 mph82%29.98 "Hg10 mi
3:53 am79 °FClear.7 mph82%29.97 "Hg10 mi
2:53 am79 °FClear.7 mph84%29.97 "Hg10 mi
1:53 am78 °FClear.5 mph87%29.99 "Hg10 mi
12:53 am79 °FClear.6 mph88%30.01 "Hg10 mi
11:53 pm
Sun, Jul 21
80 °FClear.6 mph81%30.02 "Hg10 mi
Weather by CustomWeather, © 2019

See weather overview